TimeEST,TemperatureF,Dew PointF,Humidity,Sea Level PressureIn,VisibilityMPH,Wind Direction,Wind SpeedMPH,Gust SpeedMPH,PrecipitationIn,Events,Conditions,WindDirDegrees,DateUTC
12:00 AM,76,75,97,29.64,,SSE,5.8,,,,,160,2013-03-04 14:00:00
12:00 AM,77.0,75.2,94,29.62,6.2,SSE,5.8,-,N/A,,Mostly Cloudy,160,2013-03-04 14:00:00
12:30 AM,77.0,75.2,94,29.62,6.2,West,5.8,-,N/A,Rain,Light Rain,280,2013-03-04 14:30:00
1:30 AM,77.0,75.2,94,29.62,6.2,West,3.5,-,N/A,,Mostly Cloudy,270,2013-03-04 15:30:00
2:00 AM,77.0,75.2,94,29.62,6.2,Calm,Calm,-,N/A,,Mostly Cloudy,0,2013-03-04 16:00:00
2:30 AM,77.0,75.2,94,29.62,6.2,Calm,Calm,-,N/A,,Mostly Cloudy,0,2013-03-04 16:30:00
3:00 AM,76,75,96,29.61,,SSE,6.9,,,,,160,2013-03-04 17:00:00
3:00 AM,77.0,75.2,94,29.59,6.2,SSE,6.9,-,N/A,,Mostly Cloudy,160,2013-03-04 17:00:00
3:30 AM,77.0,75.2,94,29.59,6.2,WSW,2.3,-,N/A,,Mostly Cloudy,250,2013-03-04 17:30:00
4:00 AM,77,76,94,29.61,,Calm,Calm,,,,,,2013-03-04 18:00:00
4:00 AM,77.0,75.2,94,29.59,6.2,Calm,Calm,-,N/A,,Mostly Cloudy,0,2013-03-04 18:00:00
5:00 AM,77.0,75.2,94,29.59,6.2,SSE,5.8,-,N/A,,Mostly Cloudy,160,2013-03-04 19:00:00
5:30 AM,77.0,75.2,94,29.59,6.2,SW,2.3,-,N/A,,Mostly Cloudy,230,2013-03-04 19:30:00
6:00 AM,76,75,97,29.63,19,NNW,1.2,,,,Partly Cloudy,330,2013-03-04 20:00:00
6:00 AM,77.0,75.2,94,29.62,6.2,NNW,1.2,-,N/A,,Mostly Cloudy,330,2013-03-04 20:00:00
6:30 AM,77.0,75.2,94,29.62,6.2,Calm,Calm,-,N/A,,Mostly Cloudy,0,2013-03-04 20:30:00
7:00 AM,77.0,75.2,94,29.65,6.2,SSE,2.3,-,N/A,,Mostly Cloudy,160,2013-03-04 21:00:00
7:30 AM,78.8,75.2,89,29.68,6.2,SE,3.5,-,N/A,,Mostly Cloudy,140,2013-03-04 21:30:00
8:00 AM,78.8,77.0,94,29.68,6.2,SSE,3.5,-,N/A,,Mostly Cloudy,150,2013-03-04 22:00:00
8:30 AM,78.8,77.0,94,29.68,6.2,Calm,Calm,-,N/A,,Mostly Cloudy,0,2013-03-04 22:30:00
9:00 AM,81,75,78,29.70,19,ESE,1.2,,,,Partly Cloudy,120,2013-03-04 23:00:00
9:00 AM,80.6,75.2,84,29.68,6.2,ESE,1.2,-,N/A,,Mostly Cloudy,120,2013-03-04 23:00:00
9:30 AM,82.4,75.2,79,29.71,6.2,Calm,Calm,-,N/A,,Mostly Cloudy,0,2013-03-04 23:30:00
10:00 AM,84,77,73,29.71,,ENE,3.5,,,,,60,2013-03-05 00:00:00
10:00 AM,84.2,77.0,79,29.71,6.2,ENE,3.5,-,N/A,,Mostly Cloudy,60,2013-03-05 00:00:00
10:30 AM,86.0,77.0,74,29.68,6.2,North,4.6,-,N/A,,Scattered Clouds,360,2013-03-05 00:30:00
11:00 AM,89.6,77.0,66,29.68,6.2,WNW,10.4,-,N/A,,Scattered Clouds,290,2013-03-05 01:00:00
11:30 AM,89.6,75.2,62,29.68,6.2,WNW,11.5,-,N/A,,Scattered Clouds,290,2013-03-05 01:30:00
12:00 PM,91,75,51,29.67,19,West,9.2,,,,Partly Cloudy,260,2013-03-05 02:00:00
12:00 PM,91.4,75.2,59,29.65,6.2,West,9.2,-,N/A,,Scattered Clouds,260,2013-03-05 02:00:00
12:30 PM,91.4,75.2,59,29.65,6.2,NW,8.1,-,N/A,,Scattered Clouds,310,2013-03-05 02:30:00
1:00 PM,89,78,62,29.64,,North,15.0,,,,,350,2013-03-05 03:00:00
1:00 PM,89.6,77.0,66,29.62,6.2,North,15.0,-,N/A,,Scattered Clouds,350,2013-03-05 03:00:00
1:30 PM,89.6,77.0,66,29.62,6.2,North,16.1,-,N/A,,Scattered Clouds,10,2013-03-05 03:30:00
2:00 PM,87.8,77.0,70,29.62,6.2,North,10.4,-,N/A,Thunderstorm,Partly Cloudy,10,2013-03-05 04:00:00
2:30 PM,86.0,75.2,70,29.62,5.0,East,12.7,-,N/A,Rain-Thunderstorm,Light Rain Showers,90,2013-03-05 04:30:00
3:00 PM,82,77,80,29.61,5,SE,5.8,,,,Overcast,140,2013-03-05 05:00:00
3:00 PM,82.4,77.0,84,29.59,6.2,SE,5.8,-,N/A,,Scattered Clouds,140,2013-03-05 05:00:00
3:26 PM,82.4,77.0,84,29.62,3.7,South,6.9,-,N/A,Rain-Thunderstorm,Thunderstorms and Rain,170,2013-03-05 05:26:00
3:30 PM,82.4,73.4,74,29.62,3.7,South,6.9,-,N/A,Rain-Thunderstorm,Thunderstorms and Rain,180,2013-03-05 05:30:00
3:41 PM,78.8,75.2,89,29.62,1.9,South,8.1,-,N/A,Rain-Thunderstorm,Thunderstorms and Rain,180,2013-03-05 05:41:00
3:56 PM,82.4,78.8,89,29.62,3.7,SSE,8.1,-,N/A,Rain,Light Rain Showers,150,2013-03-05 05:56:00
4:00 PM,81,77,85,29.63,,SSE,8.1,,,,,150,2013-03-05 06:00:00
4:00 PM,80.6,77.0,89,29.62,6.2,SSE,8.1,-,N/A,,Partly Cloudy,150,2013-03-05 06:00:00
4:30 PM,82.4,77.0,84,29.62,6.2,SSE,4.6,-,N/A,,Partly Cloudy,150,2013-03-05 06:30:00
4:54 PM,80.6,77.0,89,29.62,3.7,South,8.1,-,N/A,Rain-Thunderstorm,Light Rain Showers,170,2013-03-05 06:54:00
5:00 PM,80.6,77.0,89,29.62,3.7,South,5.8,-,N/A,Rain-Thunderstorm,Light Thunderstorms and Rain,170,2013-03-05 07:00:00
5:30 PM,78.8,75.2,89,29.65,3.7,South,3.5,-,N/A,Rain-Thunderstorm,Light Thunderstorms and Rain,170,2013-03-05 07:30:00
6:00 PM,78,76,94,29.67,,SSE,5.8,,,,,160,2013-03-05 08:00:00
6:00 PM,78.8,77.0,94,29.65,6.2,SSE,5.8,-,N/A,Thunderstorm,Partly Cloudy,160,2013-03-05 08:00:00
6:30 PM,78.8,77.0,94,29.68,6.2,South,3.5,-,N/A,,Mostly Cloudy,190,2013-03-05 08:30:00
7:00 PM,78,76,93,29.70,,West,2.3,,,,,280,2013-03-05 09:00:00
7:00 PM,78.8,77.0,94,29.68,6.2,West,2.3,-,N/A,,Mostly Cloudy,280,2013-03-05 09:00:00
7:30 PM,77.0,77.0,100,29.68,6.2,West,4.6,-,N/A,,Mostly Cloudy,280,2013-03-05 09:30:00
8:00 PM,78.8,77.0,94,29.71,6.2,West,1.2,-,N/A,,Mostly Cloudy,260,2013-03-05 10:00:00
8:30 PM,78.8,77.0,94,29.71,6.2,NW,6.9,-,N/A,,Mostly Cloudy,310,2013-03-05 10:30:00
9:00 PM,79,76,87,29.73,12,WSW,5.8,,,,Partly Cloudy,250,2013-03-05 11:00:00
9:00 PM,78.8,75.2,89,29.71,6.2,WSW,5.8,-,N/A,,Mostly Cloudy,250,2013-03-05 11:00:00
9:30 PM,78.8,77.0,94,29.74,6.2,WNW,1.2,-,N/A,,Mostly Cloudy,290,2013-03-05 11:30:00
10:00 PM,79,77,92,29.74,,SW,4.6,,,,,220,2013-03-05 12:00:00
10:00 PM,78.8,77.0,94,29.74,6.2,SW,4.6,-,N/A,,Scattered Clouds,220,2013-03-05 12:00:00
10:30 PM,78.8,77.0,94,29.71,6.2,South,6.9,-,N/A,,Scattered Clouds,170,2013-03-05 12:30:00
11:00 PM,78.8,77.0,94,29.71,6.2,West,5.8,-,N/A,,Mostly Cloudy,280,2013-03-05 13:00:00
11:30 PM,78.8,77.0,94,29.71,6.2,South,4.6,-,N/A,,Mostly Cloudy,190,2013-03-05 13:30:00